,,Stat6,,Stat2,,Stat8,,Stat9,,Stat10,,Wind1,,Wind1,
time,status,PA1M_AVG,status,PR1M_SUM,status,RH1M_AVG,status,SR1M_AVG,status,TA1M_AVG,status,W1dAve1m,status,W1sAve1m,
2005-03-27, 00:00:00,VALID,918.331,VALID,0,VALID,99.0287,VALID,0.0169808,VALID,18.388,VALID,80,VALID,1.0207,
2005-03-27, 00:01:00,VALID,918.318,VALID,0,VALID,98.9436,VALID,0.0169808,VALID,18.4014,VALID,88,VALID,1.18461,
2005-03-27, 00:02:00,VALID,918.318,VALID,0,VALID,98.9436,VALID,0.0339617,VALID,18.3942,VALID,91,VALID,1.13711,
2005-03-27, 00:03:00,VALID,918.292,VALID,0,VALID,98.9766,VALID,0.0169808,VALID,18.4101,VALID,98,VALID,1.13188,
2005-03-27, 00:04:00,VALID,918.282,VALID,0,VALID,98.9703,VALID,0.0509425,VALID,18.4394,VALID,100,VALID,1.0082,
2005-03-27, 00:05:00,VALID,918.267,VALID,0,VALID,98.955,VALID,0.0169808,VALID,18.4459,VALID,100,VALID,1.08239,
2005-03-27, 00:06:00,VALID,918.276,VALID,0,VALID,98.9385,VALID,0.0339617,VALID,18.4558,VALID,97,VALID,0.996003,
2005-03-27, 00:07:00,VALID,918.27,VALID,0,VALID,98.9207,VALID,0.0339617,VALID,18.4523,VALID,100,VALID,1.03849,
2005-03-27, 00:08:00,VALID,918.268,VALID,0,VALID,99.0936,VALID,0.0169808,VALID,18.4456,VALID,100,VALID,1.11151,
2005-03-27, 00:09:00,VALID,918.265,VALID,0,VALID,99.2068,VALID,0,VALID,18.4389,VALID,100,VALID,0.99657,
2005-03-27, 00:10:00,VALID,918.252,VALID,0,VALID,99.3619,VALID,0.0339617,VALID,18.4332,VALID,91,VALID,1.01385,
2005-03-27, 00:11:00,VALID,918.24,VALID,0,VALID,99.5399,VALID,0.0339617,VALID,18.4463,VALID,99,VALID,0.999814,
2005-03-27, 00:12:00,VALID,918.227,VALID,0,VALID,99.6531,VALID,0.0509425,VALID,18.4235,VALID,98,VALID,0.862165,
2005-03-27, 00:13:00,VALID,918.216,VALID,0,VALID,99.7497,VALID,0.0679233,VALID,18.4103,VALID,104,VALID,0.84811,
2005-03-27, 00:14:00,VALID,918.194,VALID,0,VALID,99.912,VALID,0.0509425,VALID,18.4004,VALID,104,VALID,0.921875,
2005-03-27, 00:15:00,VALID,918.177,VALID,0,VALID,100,VALID,0.0339617,VALID,18.3974,VALID,103,VALID,0.832126,
2005-03-27, 00:16:00,VALID,918.165,VALID,0,VALID,100,VALID,0.0169808,VALID,18.394,VALID,106,VALID,0.878646,
2005-03-27, 00:17:00,VALID,918.148,VALID,0,VALID,100,VALID,0.0169808,VALID,18.4103,VALID,110,VALID,0.829427,
2005-03-27, 00:18:00,VALID,918.138,VALID,0,VALID,100,VALID,0.0169808,VALID,18.4101,VALID,108,VALID,1.00093,
2005-03-27, 00:19:00,VALID,918.118,VALID,0,VALID,100,VALID,-0.0849042,VALID,18.421,VALID,109,VALID,0.866477,
2005-03-27, 00:20:00,VALID,918.11,VALID,0,VALID,100,VALID,-0.0679233,VALID,18.4502,VALID,117,VALID,1.01879,
2005-03-27, 00:21:00,VALID,918.105,VALID,0,VALID,100,VALID,-0.0679233,VALID,18.4798,VALID,110,VALID,1.04097,
2005-03-27, 00:22:00,VALID,918.085,VALID,0,VALID,100,VALID,-0.0849042,VALID,18.4954,VALID,108,VALID,0.944382,
2005-03-27, 00:23:00,VALID,918.074,VALID,0,VALID,100,VALID,-0.0509425,VALID,18.4957,VALID,111,VALID,0.962081,
2005-03-27, 00:24:00,VALID,918.055,VALID,0,VALID,100,VALID,-0.0509425,VALID,18.5088,VALID,112,VALID,0.811967,
2005-03-27, 00:25:00,VALID,918.036,VALID,0,VALID,100,VALID,-0.0849042,VALID,18.5185,VALID,112,VALID,0.768601,
2005-03-27, 00:26:00,VALID,918.016,VALID,0,VALID,100,VALID,-0.0849042,VALID,18.5153,VALID,120,VALID,0.788699,
2005-03-27, 00:27:00,VALID,918.002,VALID,0,VALID,100,VALID,-0.0679233,VALID,18.5252,VALID,114,VALID,0.690662,
2005-03-27, 00:28:00,VALID,917.983,VALID,0,VALID,100,VALID,-0.0679233,VALID,18.528,VALID,131,VALID,0.944767,
2005-03-27, 00:29:00,VALID,917.968,VALID,0,VALID,100,VALID,-0.0339617,VALID,18.5542,VALID,107,VALID,0.704368,
2005-03-27, 00:30:00,VALID,917.946,VALID,0,VALID,100,VALID,-0.0849042,VALID,18.5768,VALID,118,VALID,0.796875,
2005-03-27, 00:31:00,VALID,917.922,VALID,0,VALID,99.9326,VALID,-0.101885,VALID,18.59,VALID,130,VALID,1.03218,
2005-03-27, 00:32:01,VALID,917.9,VALID,0,VALID,99.7167,VALID,-0.0849042,VALID,18.6054,VALID,128,VALID,0.732244,
2005-03-27, 00:33:00,VALID,917.893,VALID,0,VALID,99.4891,VALID,-0.0679233,VALID,18.6476,VALID,116,VALID,0.890447,
2005-03-27, 00:34:00,VALID,917.884,VALID,0,VALID,99.2551,VALID,-0.0169808,VALID,18.6624,VALID,115,VALID,0.600675,
2005-03-27, 00:35:00,VALID,917.872,VALID,0,VALID,99.0949,VALID,-0.0339617,VALID,18.6755,VALID,113,VALID,0.746652,
2005-03-27, 00:36:00,VALID,917.861,VALID,0,VALID,99.0211,VALID,0,VALID,18.6951,VALID,112,VALID,0.852471,
2005-03-27, 00:37:01,VALID,917.835,VALID,0,VALID,98.9919,VALID,0,VALID,18.7043,VALID,115,VALID,0.763672,
2005-03-27, 00:38:00,VALID,917.838,VALID,0,VALID,99.0198,VALID,0,VALID,18.7237,VALID,107,VALID,0.98274,
2005-03-27, 00:39:01,VALID,917.822,VALID,0,VALID,99.0593,VALID,-0.0339617,VALID,18.7502,VALID,123,VALID,0.815625,
2005-03-27, 00:40:00,VALID,917.81,VALID,0,VALID,99.0936,VALID,-0.0339617,VALID,18.756,VALID,122,VALID,1.02871,
2005-03-27, 00:41:01,VALID,917.803,VALID,0,VALID,99.0682,VALID,-0.0169808,VALID,18.7825,VALID,125,VALID,1.00491,
2005-03-27, 00:42:00,VALID,917.794,VALID,0,VALID,98.9893,VALID,-0.0169808,VALID,18.7917,VALID,106,VALID,0.759993,
2005-03-27, 00:43:00,VALID,917.795,VALID,0,VALID,98.9143,VALID,0,VALID,18.7726,VALID,99,VALID,0.780692,
2005-03-27, 00:44:00,VALID,917.769,VALID,0,VALID,98.8812,VALID,-0.0169808,VALID,18.779,VALID,105,VALID,0.780488,
2005-03-27, 00:45:00,VALID,917.755,VALID,0,VALID,98.8914,VALID,0,VALID,18.7691,VALID,98,VALID,0.867374,
2005-03-27, 00:46:01,VALID,917.736,VALID,0,VALID,98.9804,VALID,-0.0339617,VALID,18.7756,VALID,106,VALID,0.874645,
2005-03-27, 00:47:00,VALID,917.724,VALID,0,VALID,99.0771,VALID,-0.0169808,VALID,18.779,VALID,110,VALID,0.962936,
2005-03-27, 00:48:01,VALID,917.71,VALID,0,VALID,99.1432,VALID,0,VALID,18.7855,VALID,102,VALID,0.973047,
2005-03-27, 00:49:01,VALID,917.694,VALID,0,VALID,99.1902,VALID,-0.0169808,VALID,18.7855,VALID,105,VALID,0.952415,
2005-03-27, 00:50:00,VALID,917.679,VALID,0,VALID,99.1902,VALID,-0.0169808,VALID,18.7952,VALID,90,VALID,0.882622,
2005-03-27, 00:51:00,VALID,917.668,VALID,0,VALID,99.1318,VALID,-0.0509425,VALID,18.7885,VALID,82,VALID,1.02762,
2005-03-27, 00:52:00,VALID,917.652,VALID,0,VALID,99.0923,VALID,-0.0509425,VALID,18.8083,VALID,85,VALID,1.28663,
2005-03-27, 00:53:01,VALID,917.63,VALID,0,VALID,99.0033,VALID,-0.0169808,VALID,18.7846,VALID,86,VALID,1.15352,
2005-03-27, 00:54:01,VALID,917.619,VALID,0,VALID,98.9652,VALID,-0.0169808,VALID,18.7818,VALID,84,VALID,1.02624,
2005-03-27, 00:55:00,VALID,917.6,VALID,0,VALID,98.969,VALID,0,VALID,18.7687,VALID,90,VALID,0.942406,
2005-03-27, 00:56:00,VALID,917.588,VALID,0,VALID,98.983,VALID,0,VALID,18.7622,VALID,90,VALID,1.1436,
2005-03-27, 00:57:00,VALID,917.58,VALID,0,VALID,98.9893,VALID,0,VALID,18.7366,VALID,90,VALID,1.11514,
2005-03-27, 00:58:00,VALID,917.564,VALID,0,VALID,99.0644,VALID,0,VALID,18.7165,VALID,83,VALID,1.01835,
2005-03-27, 00:59:00,VALID,917.563,VALID,0,VALID,99.1139,VALID,0.0169808,VALID,18.7039,VALID,96,VALID,0.798633,
2005-03-27, 01:00:01,VALID,917.546,VALID,0,VALID,99.1826,VALID,-0.0339617,VALID,18.688,VALID,108,VALID,0.790483,
2005-03-27, 01:01:00,VALID,917.544,VALID,0,VALID,99.2411,VALID,0,VALID,18.6882,VALID,108,VALID,0.716619,
2005-03-27, 01:02:01,VALID,917.53,VALID,0,VALID,99.3212,VALID,-0.0169808,VALID,18.6949,VALID,115,VALID,0.671289,
2005-03-27, 01:03:01,VALID,917.511,VALID,0,VALID,99.353,VALID,0,VALID,18.6845,VALID,117,VALID,0.613991,
2005-03-27, 01:04:00,VALID,917.496,VALID,0,VALID,99.3441,VALID,0.0169808,VALID,18.7013,VALID,108,VALID,0.753551,
2005-03-27, 01:05:00,VALID,917.495,VALID,0,VALID,99.3339,VALID,-0.0169808,VALID,18.7011,VALID,125,VALID,0.428977,
2005-03-27, 01:06:01,VALID,917.484,VALID,0,VALID,99.3225,VALID,0.0169808,VALID,18.7009,VALID,127,VALID,0.448686,
2005-03-27, 01:07:01,VALID,917.479,VALID,0,VALID,99.2653,VALID,-0.0169808,VALID,18.6979,VALID,127,VALID,0.478646,
2005-03-27, 01:08:01,VALID,917.46,VALID,0,VALID,99.2411,VALID,-0.0169808,VALID,18.7078,VALID,127,VALID,0.373001,
2005-03-27, 01:09:00,VALID,917.458,VALID,0,VALID,99.2106,VALID,0,VALID,18.6946,VALID,127,VALID,0.421875,
2005-03-27, 01:10:00,VALID,917.442,VALID,0,VALID,99.1801,VALID,-0.0169808,VALID,18.6815,VALID,130,VALID,0.461523,
2005-03-27, 01:11:01,VALID,917.444,VALID,0,VALID,99.1928,VALID,-0.0339617,VALID,18.6882,VALID,132,VALID,0.470567,
2005-03-27, 01:12:00,VALID,917.421,VALID,0,VALID,99.086,VALID,-0.0169808,VALID,18.6787,VALID,134,VALID,0.742188,
2005-03-27, 01:13:00,VALID,917.437,VALID,0,VALID,99.072,VALID,0,VALID,18.6813,VALID,148,VALID,0.526811,
2005-03-27, 01:14:00,VALID,917.432,VALID,0,VALID,98.9893,VALID,0,VALID,18.6681,VALID,127,VALID,0.43564,
2005-03-27, 01:15:01,VALID,917.434,VALID,0,VALID,98.9194,VALID,-0.0169808,VALID,18.6817,VALID,116,VALID,0.93608,
2005-03-27, 01:16:00,VALID,917.434,VALID,0,VALID,98.8762,VALID,-0.0169808,VALID,18.6946,VALID,122,VALID,0.673437,
2005-03-27, 01:17:01,VALID,917.424,VALID,0,VALID,98.8227,VALID,-0.0169808,VALID,18.7239,VALID,110,VALID,0.615057,
2005-03-27, 01:18:01,VALID,917.429,VALID,0,VALID,98.7999,VALID,-0.0169808,VALID,18.7364,VALID,125,VALID,0.427326,
2005-03-27, 01:19:00,VALID,917.423,VALID,0,VALID,98.7528,VALID,-0.0169808,VALID,18.75,VALID,123,VALID,0.507813,
2005-03-27, 01:20:01,VALID,917.414,VALID,0,VALID,98.7795,VALID,0.0169808,VALID,18.7493,VALID,120,VALID,0.61843,
2005-03-27, 01:21:00,VALID,917.411,VALID,0,VALID,98.824,VALID,0.0169808,VALID,18.7458,VALID,138,VALID,0.475109,
2005-03-27, 01:22:00,VALID,917.414,VALID,0,VALID,98.8609,VALID,0,VALID,18.7594,VALID,135,VALID,0.208519,
2005-03-27, 01:23:00,VALID,917.414,VALID,0,VALID,98.8558,VALID,-0.0169808,VALID,18.7565,VALID,125,VALID,0.238735,
2005-03-27, 01:24:01,VALID,917.398,VALID,0,VALID,98.8978,VALID,-0.0169808,VALID,18.7624,VALID,123,VALID,0.10625,
2005-03-27, 01:25:00,VALID,917.391,VALID,0,VALID,98.9258,VALID,0,VALID,18.7557,VALID,123,VALID,0.150641,
2005-03-27, 01:26:00,VALID,917.388,VALID,0,VALID,98.9588,VALID,0,VALID,18.7428,VALID,123,VALID,0.172408,
2005-03-27, 01:27:01,VALID,917.381,VALID,0,VALID,98.9779,VALID,0,VALID,18.7465,VALID,118,VALID,0.460938,
2005-03-27, 01:28:00,VALID,917.377,VALID,0,VALID,99.0402,VALID,0,VALID,18.7334,VALID,90,VALID,0.577943,
2005-03-27, 01:29:01,VALID,917.377,VALID,0,VALID,99.0644,VALID,0,VALID,18.7302,VALID,78,VALID,0.553052,
2005-03-27, 01:30:00,VALID,917.372,VALID,0,VALID,99.0326,VALID,-0.0339617,VALID,18.7334,VALID,74,VALID,0.475174,
2005-03-27, 01:31:00,VALID,917.365,VALID,0,VALID,99.0224,VALID,0.0169808,VALID,18.7239,VALID,74,VALID,0.492374,
2005-03-27, 01:32:01,VALID,917.361,VALID,0,VALID,98.9855,VALID,0,VALID,18.7113,VALID,74,VALID,0.502362,
2005-03-27, 01:33:00,VALID,917.341,VALID,0,VALID,98.9995,VALID,-0.0169808,VALID,18.7006,VALID,74,VALID,0.478795,
2005-03-27, 01:34:00,VALID,917.333,VALID,0,VALID,98.8965,VALID,0,VALID,18.6884,VALID,83,VALID,0.55522,
2005-03-27, 01:35:01,VALID,917.327,VALID,0,VALID,98.796,VALID,-0.0509425,VALID,18.679,VALID,100,VALID,0.587271,
2005-03-27, 01:36:01,VALID,917.312,VALID,0,VALID,98.6956,VALID,-0.0339617,VALID,18.6757,VALID,100,VALID,0.855674,
2005-03-27, 01:37:00,VALID,917.294,VALID,0,VALID,98.6142,VALID,-0.0169808,VALID,18.6686,VALID,92,VALID,0.829215,
2005-03-27, 01:38:00,VALID,917.285,VALID,0,VALID,98.5621,VALID,-0.0169808,VALID,18.6654,VALID,87,VALID,0.829687,
2005-03-27, 01:39:01,VALID,917.281,VALID,0,VALID,98.6129,VALID,-0.0169808,VALID,18.6787,VALID,83,VALID,0.692224,
2005-03-27, 01:40:00,VALID,917.264,VALID,0,VALID,98.6307,VALID,-0.0339617,VALID,18.6691,VALID,84,VALID,0.920201,
2005-03-27, 01:41:01,VALID,917.26,VALID,0,VALID,98.6015,VALID,-0.0169808,VALID,18.6497,VALID,84,VALID,0.791667,
2005-03-27, 01:42:01,VALID,917.261,VALID,0,VALID,98.5875,VALID,-0.0169808,VALID,18.6462,VALID,85,VALID,0.836846,
2005-03-27, 01:43:00,VALID,917.264,VALID,0,VALID,98.618,VALID,-0.0169808,VALID,18.6306,VALID,84,VALID,0.830729,
2005-03-27, 01:44:00,VALID,917.268,VALID,0,VALID,98.6676,VALID,-0.0849042,VALID,18.6144,VALID,89,VALID,0.964844,
2005-03-27, 01:45:01,VALID,917.262,VALID,0,VALID,98.7477,VALID,-0.0509425,VALID,18.6047,VALID,83,VALID,0.831473,
2005-03-27, 01:46:00,VALID,917.283,VALID,0,VALID,98.8278,VALID,-0.0339617,VALID,18.595,VALID,83,VALID,0.721484,
2005-03-27, 01:47:00,VALID,917.279,VALID,0,VALID,98.9219,VALID,-0.0339617,VALID,18.5854,VALID,93,VALID,0.674716,
2005-03-27, 01:48:00,VALID,917.285,VALID,0,VALID,99.0313,VALID,-0.0339617,VALID,18.5757,VALID,83,VALID,0.551639,
2005-03-27, 01:49:00,VALID,917.291,VALID,0,VALID,99.1114,VALID,-0.0339617,VALID,18.5593,VALID,82,VALID,0.622514,
2005-03-27, 01:50:00,VALID,917.302,VALID,0,VALID,99.2004,VALID,-0.0679233,VALID,18.5365,VALID,81,VALID,0.516183,
2005-03-27, 01:51:00,VALID,917.283,VALID,0,VALID,99.2971,VALID,-0.0679233,VALID,18.5369,VALID,81,VALID,0.473958,
2005-03-27, 01:52:00,VALID,917.284,VALID,0,VALID,99.4013,VALID,-0.0509425,VALID,18.5337,VALID,81,VALID,0.557664,
2005-03-27, 01:53:00,VALID,917.275,VALID,0,VALID,99.5018,VALID,-0.0849042,VALID,18.5275,VALID,81,VALID,0.572359,
2005-03-27, 01:54:00,VALID,917.276,VALID,0,VALID,99.5692,VALID,-0.0509425,VALID,18.5176,VALID,81,VALID,0.506904,
2005-03-27, 01:55:01,VALID,917.279,VALID,0,VALID,99.6315,VALID,-0.0679233,VALID,18.501,VALID,81,VALID,0.478516,
2005-03-27, 01:56:01,VALID,917.278,VALID,0,VALID,99.7319,VALID,-0.0509425,VALID,18.5084,VALID,81,VALID,0.575462,
2005-03-27, 01:57:01,VALID,917.273,VALID,0,VALID,99.7777,VALID,-0.0509425,VALID,18.5042,VALID,81,VALID,0.655208,
2005-03-27, 01:58:00,VALID,917.254,VALID,0,VALID,99.8006,VALID,-0.0849042,VALID,18.5047,VALID,82,VALID,0.703125,
2005-03-27, 01:59:01,VALID,917.252,VALID,0,VALID,99.8502,VALID,-0.0509425,VALID,18.4984,VALID,84,VALID,0.894245,
2005-03-27, 02:00:01,VALID,917.239,VALID,0,VALID,99.8922,VALID,-0.0339617,VALID,18.4917,VALID,93,VALID,1.01017,
2005-03-27, 02:01:01,VALID,917.233,VALID,0,VALID,99.9151,VALID,-0.0509425,VALID,18.4947,VALID,99,VALID,0.91353,
2005-03-27, 02:02:00,VALID,917.228,VALID,0,VALID,99.9367,VALID,-0.0509425,VALID,18.5014,VALID,106,VALID,0.935033,
2005-03-27, 02:03:00,VALID,917.219,VALID,0,VALID,99.9786,VALID,-0.0509425,VALID,18.4982,VALID,119,VALID,1.16788,
2005-03-27, 02:04:01,VALID,917.216,VALID,0,VALID,99.9443,VALID,-0.0679233,VALID,18.5176,VALID,121,VALID,0.831182,
2005-03-27, 02:05:00,VALID,917.208,VALID,0,VALID,99.8388,VALID,-0.0679233,VALID,18.5339,VALID,114,VALID,0.95348,
2005-03-27, 02:06:01,VALID,917.186,VALID,0,VALID,99.7014,VALID,-0.101885,VALID,18.5501,VALID,115,VALID,0.933117,
2005-03-27, 02:07:01,VALID,917.172,VALID,0,VALID,99.5539,VALID,-0.0679233,VALID,18.5593,VALID,117,VALID,0.783975,
2005-03-27, 02:08:00,VALID,917.165,VALID,0,VALID,99.4878,VALID,-0.0509425,VALID,18.5791,VALID,118,VALID,0.577217,
2005-03-27, 02:09:00,VALID,917.151,VALID,0,VALID,99.3899,VALID,-0.0339617,VALID,18.5826,VALID,119,VALID,0.80202,
2005-03-27, 02:10:01,VALID,917.148,VALID,0,VALID,99.264,VALID,-0.0509425,VALID,18.5888,VALID,124,VALID,0.680432,
2005-03-27, 02:11:01,VALID,917.131,VALID,0,VALID,99.1178,VALID,-0.0509425,VALID,18.5754,VALID,120,VALID,0.685683,
2005-03-27, 02:12:00,VALID,917.125,VALID,0,VALID,98.9614,VALID,-0.0509425,VALID,18.5918,VALID,121,VALID,0.575521,
2005-03-27, 02:13:01,VALID,917.122,VALID,0,VALID,98.8533,VALID,-0.0509425,VALID,18.5978,VALID,121,VALID,0.598028,
2005-03-27, 02:14:00,VALID,917.113,VALID,0,VALID,98.7515,VALID,-0.0849042,VALID,18.6179,VALID,124,VALID,0.698219,
2005-03-27, 02:15:00,VALID,917.107,VALID,0,VALID,98.7134,VALID,-0.0509425,VALID,18.6243,VALID,126,VALID,0.591146,
2005-03-27, 02:16:00,VALID,917.105,VALID,0,VALID,98.7197,VALID,-0.0679233,VALID,18.6273,VALID,126,VALID,0.679492,
2005-03-27, 02:17:01,VALID,917.101,VALID,0,VALID,98.6625,VALID,-0.0339617,VALID,18.634,VALID,126,VALID,0.739784,
2005-03-27, 02:18:01,VALID,917.097,VALID,0,VALID,98.6282,VALID,-0.0339617,VALID,18.6209,VALID,131,VALID,0.743676,
2005-03-27, 02:19:01,VALID,917.087,VALID,0,VALID,98.5392,VALID,-0.0509425,VALID,18.6144,VALID,127,VALID,0.72526,
2005-03-27, 02:20:01,VALID,917.082,VALID,0,VALID,98.4781,VALID,-0.0509425,VALID,18.6209,VALID,128,VALID,0.686773,
2005-03-27, 02:21:01,VALID,917.067,VALID,0,VALID,98.4362,VALID,-0.0339617,VALID,18.6206,VALID,121,VALID,0.887463,
2005-03-27, 02:22:00,VALID,917.051,VALID,0,VALID,98.412,VALID,-0.0679233,VALID,18.6273,VALID,107,VALID,0.750908,
2005-03-27, 02:23:00,VALID,917.028,VALID,0,VALID,98.3535,VALID,-0.0339617,VALID,18.6303,VALID,101,VALID,0.822516,
2005-03-27, 02:24:01,VALID,917.004,VALID,0,VALID,98.3256,VALID,-0.0679233,VALID,18.637,VALID,86,VALID,0.575781,
2005-03-27, 02:25:01,VALID,916.979,VALID,0,VALID,98.262,VALID,-0.0849042,VALID,18.631,VALID,84,VALID,0.774639,
2005-03-27, 02:26:01,VALID,916.965,VALID,0,VALID,98.1806,VALID,-0.101885,VALID,18.6117,VALID,98,VALID,0.909201,
2005-03-27, 02:27:01,VALID,916.968,VALID,0,VALID,98.0445,VALID,-0.0509425,VALID,18.6047,VALID,93,VALID,0.748183,
2005-03-27, 02:28:00,VALID,916.957,VALID,0,VALID,97.9326,VALID,-0.0849042,VALID,18.6146,VALID,89,VALID,0.549293,
2005-03-27, 02:29:01,VALID,916.946,VALID,0,VALID,97.9021,VALID,-0.0509425,VALID,18.6144,VALID,80,VALID,0.399709,
2005-03-27, 02:30:01,VALID,916.939,VALID,0,VALID,98.0089,VALID,-0.0169808,VALID,18.6077,VALID,81,VALID,0.395461,
2005-03-27, 02:31:00,VALID,916.933,VALID,0,VALID,97.8856,VALID,-0.0339617,VALID,18.6015,VALID,101,VALID,0.810014,
2005-03-27, 02:32:01,VALID,916.927,VALID,0,VALID,97.8233,VALID,-0.0169808,VALID,18.6043,VALID,112,VALID,0.960556,
2005-03-27, 02:33:01,VALID,916.918,VALID,0,VALID,97.9059,VALID,-0.0339617,VALID,18.631,VALID,117,VALID,0.901105,
2005-03-27, 02:34:01,VALID,916.923,VALID,0,VALID,97.8017,VALID,0,VALID,18.6266,VALID,123,VALID,0.950817,
2005-03-27, 02:35:01,VALID,916.916,VALID,0,VALID,97.6516,VALID,0,VALID,18.6402,VALID,128,VALID,0.978906,
2005-03-27, 02:36:01,VALID,916.921,VALID,0,VALID,97.5728,VALID,-0.0169808,VALID,18.6432,VALID,141,VALID,0.817073,
2005-03-27, 02:37:01,VALID,916.93,VALID,0,VALID,97.6287,VALID,0,VALID,18.6395,VALID,127,VALID,0.710582,
2005-03-27, 02:38:01,VALID,916.914,VALID,0,VALID,97.7304,VALID,0,VALID,18.6495,VALID,125,VALID,0.781068,
2005-03-27, 02:39:01,VALID,916.905,VALID,0,VALID,97.9695,VALID,-0.0169808,VALID,18.6467,VALID,127,VALID,0.865916,
2005-03-27, 02:40:01,VALID,916.897,VALID,0,VALID,98.0852,VALID,0,VALID,18.6303,VALID,122,VALID,0.622396,
2005-03-27, 02:41:01,VALID,916.878,VALID,0,VALID,98.2048,VALID,0,VALID,18.6008,VALID,104,VALID,0.674419,
2005-03-27, 02:42:01,VALID,916.875,VALID,0,VALID,98.3001,VALID,0.0169808,VALID,18.578,VALID,100,VALID,0.757254,
2005-03-27, 02:43:01,VALID,916.85,VALID,0,VALID,98.4375,VALID,0,VALID,18.5759,VALID,97,VALID,0.835938,
2005-03-27, 02:44:01,VALID,916.844,VALID,0,VALID,98.5977,VALID,0,VALID,18.5588,VALID,95,VALID,0.863814,
2005-03-27, 02:45:01,VALID,916.856,VALID,0,VALID,98.6218,VALID,-0.0169808,VALID,18.5491,VALID,92,VALID,0.740986,
2005-03-27, 02:46:01,VALID,916.848,VALID,0,VALID,98.5735,VALID,0,VALID,18.5501,VALID,93,VALID,0.676339,
2005-03-27, 02:47:01,VALID,916.851,VALID,0,VALID,98.4603,VALID,-0.0169808,VALID,18.524,VALID,95,VALID,0.881177,
2005-03-27, 02:48:01,VALID,916.853,VALID,0,VALID,98.323,VALID,0.0169808,VALID,18.5139,VALID,106,VALID,0.849085,
2005-03-27, 02:49:01,VALID,916.851,VALID,0,VALID,98.2353,VALID,0.0849042,VALID,18.5162,VALID,107,VALID,0.823438,
2005-03-27, 02:50:01,VALID,916.849,VALID,0,VALID,98.2378,VALID,0.0509425,VALID,18.5092,VALID,112,VALID,0.676417,
2005-03-27, 02:51:01,VALID,916.858,VALID,0,VALID,98.2429,VALID,0.0849042,VALID,18.5157,VALID,116,VALID,0.523793,
2005-03-27, 02:52:01,VALID,916.856,VALID,0,VALID,98.2327,VALID,0.101885,VALID,18.503,VALID,107,VALID,0.766197,
2005-03-27, 02:53:01,VALID,916.829,VALID,0,VALID,98.2035,VALID,0.0509425,VALID,18.5065,VALID,101,VALID,0.914825,
2005-03-27, 02:54:01,VALID,916.813,VALID,0,VALID,98.3179,VALID,0.0849042,VALID,18.5097,VALID,110,VALID,1.1635,
2005-03-27, 02:55:01,VALID,916.814,VALID,0,VALID,98.4934,VALID,0.0339617,VALID,18.5162,VALID,112,VALID,0.881479,
2005-03-27, 02:56:01,VALID,916.798,VALID,0,VALID,98.6295,VALID,0.0679233,VALID,18.5194,VALID,109,VALID,0.73402,
2005-03-27, 02:57:01,VALID,916.801,VALID,0,VALID,98.7147,VALID,0.0849042,VALID,18.5293,VALID,113,VALID,0.946528,
2005-03-27, 02:58:01,VALID,916.798,VALID,0,VALID,98.7922,VALID,0.101885,VALID,18.5157,VALID,102,VALID,1.0867,
2005-03-27, 02:59:01,VALID,916.813,VALID,0,VALID,98.8355,VALID,0.0679233,VALID,18.5194,VALID,112,VALID,0.909108,
2005-03-27, 03:00:00,VALID,916.815,VALID,0,VALID,98.9207,VALID,0.0679233,VALID,18.5164,VALID,115,VALID,0.800426,
2005-03-27, 03:01:00,VALID,916.821,VALID,0,VALID,99.0402,VALID,0.0679233,VALID,18.5,VALID,112,VALID,0.946987,
2005-03-27, 03:02:00,VALID,916.827,VALID,0,VALID,99.208,VALID,0.0509425,VALID,18.5067,VALID,124,VALID,1.03229,
2005-03-27, 03:03:00,VALID,916.824,VALID,0,VALID,99.3136,VALID,0.0339617,VALID,18.5139,VALID,116,VALID,0.740189,
2005-03-27, 03:04:00,VALID,916.806,VALID,0,VALID,99.3695,VALID,0,VALID,18.5014,VALID,119,VALID,0.861281,
2005-03-27, 03:05:00,VALID,916.803,VALID,0,VALID,99.4179,VALID,-0.0169808,VALID,18.5014,VALID,114,VALID,0.707031,
2005-03-27, 03:06:00,VALID,916.78,VALID,0,VALID,99.4865,VALID,-0.0509425,VALID,18.4982,VALID,107,VALID,0.906597,
2005-03-27, 03:07:00,VALID,916.765,VALID,0,VALID,99.5094,VALID,-0.0169808,VALID,18.498,VALID,113,VALID,0.462462,
2005-03-27, 03:08:00,VALID,916.749,VALID,0,VALID,99.531,VALID,0,VALID,18.5081,VALID,100,VALID,0.622461,
2005-03-27, 03:09:00,VALID,916.728,VALID,0,VALID,99.5336,VALID,-0.0339617,VALID,18.5044,VALID,109,VALID,0.590843,
2005-03-27, 03:10:00,VALID,916.707,VALID,0,VALID,99.5285,VALID,-0.0339617,VALID,18.498,VALID,101,VALID,0.665972,
2005-03-27, 03:11:00,VALID,916.679,VALID,0,VALID,99.4916,VALID,0,VALID,18.5047,VALID,101,VALID,0.866071,
2005-03-27, 03:12:00,VALID,916.674,VALID,0,VALID,99.4522,VALID,-0.0339617,VALID,18.5109,VALID,105,VALID,0.873476,
2005-03-27, 03:13:00,VALID,916.665,VALID,0,VALID,99.4001,VALID,0,VALID,18.5176,VALID,106,VALID,0.838914,
2005-03-27, 03:14:00,VALID,916.662,VALID,0,VALID,99.3708,VALID,-0.0509425,VALID,18.5238,VALID,112,VALID,0.798242,
2005-03-27, 03:15:00,VALID,916.644,VALID,0,VALID,99.3085,VALID,0,VALID,18.5307,VALID,114,VALID,0.740473,
2005-03-27, 03:16:00,VALID,916.635,VALID,0,VALID,99.2437,VALID,-0.0169808,VALID,18.5436,VALID,114,VALID,0.46984,
2005-03-27, 03:17:00,VALID,916.643,VALID,0,VALID,99.1432,VALID,-0.0509425,VALID,18.5402,VALID,114,VALID,0.584413,
2005-03-27, 03:18:00,VALID,916.621,VALID,0,VALID,99.0644,VALID,-0.0679233,VALID,18.5369,VALID,109,VALID,0.691883,
2005-03-27, 03:19:00,VALID,916.612,VALID,0,VALID,98.9817,VALID,-0.0509425,VALID,18.5399,VALID,104,VALID,0.719477,
2005-03-27, 03:20:00,VALID,916.606,VALID,0,VALID,98.8139,VALID,-0.0679233,VALID,18.557,VALID,107,VALID,0.660633,
2005-03-27, 03:21:00,VALID,916.611,VALID,0,VALID,98.6422,VALID,-0.0849042,VALID,18.5764,VALID,110,VALID,0.610577,
2005-03-27, 03:22:00,VALID,916.613,VALID,0,VALID,98.5188,VALID,-0.0509425,VALID,18.5858,VALID,113,VALID,0.634766,
2005-03-27, 03:23:00,VALID,916.616,VALID,0,VALID,98.4082,VALID,-0.0509425,VALID,18.5923,VALID,131,VALID,0.850446,
2005-03-27, 03:24:00,VALID,916.628,VALID,0,VALID,98.3001,VALID,-0.0339617,VALID,18.6176,VALID,130,VALID,0.681055,
2005-03-27, 03:25:00,VALID,916.637,VALID,0,VALID,98.1577,VALID,-0.0679233,VALID,18.6276,VALID,135,VALID,0.669922,
2005-03-27, 03:26:00,VALID,916.642,VALID,0,VALID,98.075,VALID,-0.101885,VALID,18.6442,VALID,135,VALID,0.588825,
2005-03-27, 03:27:00,VALID,916.654,VALID,0,VALID,98.0204,VALID,-0.0679233,VALID,18.637,VALID,136,VALID,0.645579,
2005-03-27, 03:28:00,VALID,916.659,VALID,0,VALID,97.953,VALID,-0.0679233,VALID,18.6531,VALID,134,VALID,0.673921,
2005-03-27, 03:29:00,VALID,916.662,VALID,0,VALID,97.9136,VALID,-0.101885,VALID,18.6663,VALID,127,VALID,0.571429,
2005-03-27, 03:30:00,VALID,916.66,VALID,0,VALID,97.8703,VALID,-0.101885,VALID,18.6665,VALID,113,VALID,0.404797,
2005-03-27, 03:31:00,VALID,916.666,VALID,0,VALID,97.9237,VALID,-0.0679233,VALID,18.6276,VALID,110,VALID,0.402148,